Location: Calberlah
(52.4230°N, 10.6240°E)
Time: 00:50:01
(UTC+00:00)

NOSS 3-1 (A) - Pass Details

Date: 19 May 2025
Orbit: 667 x 1541 km, 63.4° (Epoch: 12 June)

Event Time Altitude Azimuth Distance (km) Brightness Sun altitude
Exits shadow 22:37:13 - 237° (WSW) 3,114 5.9 -17.2°
Reaches altitude 10° 22:39:25 10° 241° (WSW) 2,264 5.2 -17.2°
Maximum altitude 22:44:32 65° 323° (NW) 929 3.6 -17.3°
Drops below altitude 10° 22:50:48 10° 45° (NE) 2,760 6.4 -17.4°
Sets 22:53:44 0° 49° (NE) 3,857 7.2 -17.5°
